Weather History for Drummond Island, MI

Change the Weather History Date:

Saturday, June 28, 2014

  Actual Average (KCIU) Record (KCIU)
Temperature  
Mean Temperature 68 °F -  
Max Temperature 78 °F 73 °F 84 °F (2001)
Min Temperature 58 °F 47 °F 41 °F (1979)
Cooling Degree Days 3    
Growing Degree Days 18 (Base 50)    
Moisture  
Dew Point 59 °F    
Average Humidity 74    
Maximum Humidity 90    
Minimum Humidity 55    
Precipitation  
Precipitation 0.00 in - - ()
Sea Level Pressure  
Sea Level Pressure 30.09 in    
Wind  
Wind Speed 7 mph (SE)    
Max Wind Speed 14 mph    
Max Gust Speed 22 mph    
Visibility 10 miles    
Events      
Averages and records for this station are not official NWS values.
T = Trace of Precipitation, MM = Missing Value Source: NWS Daily Summary

Daily Weather History Graph

Daily Weather History Graph

Search for Another Location

Airport:

Trip Planner

Search our weather history database for the weather conditions in past years. The results will help you decide how hot, cold, wet, or windy it might be!

Date:

Astronomy

Jun. 28, 2014 Rise Set
Actual Time 5:46 AM EDT 9:29 PM EDT
Civil Twilight 5:08 AM EDT 10:08 PM EDT
Nautical Twilight 4:16 AM EDT 10:59 PM EDT
Astronomical Twilight 3:04 AM EDT 12:11 AM EDT
Moon 7:16 AM EDT (6/28) 10:05 PM EDT (6/28)
Length of Visible Light 17h 00m
Length of Day
15h 43m
New Moon, 2% of the Moon is Illuminated
Jun 28
New Moon
Jul 5
First Quarter
Jul 12
Full
Jul 18
Last Quarter
Jul 26
New

Hourly Weather History & Observations

Time (EDT) Temp. Dew Point Humidity Pressure Visibility Wind Dir Wind Speed Gust Speed Precip Events Conditions
12:14 AM 59.0 °F 48.2 °F 67% 30.09 in 10.0 mi SSE 6.9 mph - N/A   Clear
12:35 AM 59.0 °F 48.2 °F 67% 30.09 in 10.0 mi SE 5.8 mph - N/A   Clear
12:55 AM 59.5 °F 47.5 °F 64% 30.09 in 10.0 mi SSE 8.1 mph - N/A   Clear
1:14 AM 60.1 °F 47.7 °F 64% 30.10 in 10.0 mi SSE 9.2 mph - N/A   Clear
1:35 AM 59.9 °F 48.4 °F 66% 30.10 in 10.0 mi SSE 10.4 mph 16.1 mph N/A   Clear
1:54 AM 59.9 °F 49.5 °F 68% 30.10 in 10.0 mi SSE 8.1 mph - N/A   Clear
2:15 AM 59.9 °F 50.4 °F 71% 30.10 in 10.0 mi SSE 5.8 mph - N/A   Clear
2:35 AM 59.7 °F 51.1 °F 73% 30.10 in 10.0 mi SSE 6.9 mph - N/A   Clear
2:54 AM 59.4 °F 51.6 °F 76% 30.10 in 10.0 mi SSE 5.8 mph - N/A   Clear
3:15 AM 59.4 °F 52.2 °F 77% 30.10 in 10.0 mi SSE 6.9 mph - N/A   Clear
3:35 AM 59.2 °F 52.9 °F 80% 30.10 in 10.0 mi SSE 5.8 mph - N/A   Clear
3:54 AM 59.0 °F 53.4 °F 82% 30.10 in 10.0 mi SSE 4.6 mph - N/A   Clear
4:15 AM 59.0 °F 53.8 °F 83% 30.10 in 10.0 mi SSE 5.8 mph - N/A   Clear
4:34 AM 58.5 °F 54.0 °F 85% 30.10 in 10.0 mi SE 4.6 mph - N/A   Clear
4:54 AM 59.0 °F 54.7 °F 86% 30.11 in 10.0 mi SSE 5.8 mph - N/A   Clear
5:15 AM 59.2 °F 54.7 °F 85% 30.11 in 10.0 mi SSE 4.6 mph - N/A   Clear
5:34 AM 59.0 °F 55.0 °F 87% 30.11 in 10.0 mi SE 3.5 mph - N/A   Clear
5:55 AM 58.6 °F 55.0 °F 88% 30.10 in 10.0 mi SE 4.6 mph - N/A   Clear
6:14 AM 59.0 °F 55.6 °F 88% 30.11 in 10.0 mi SE 4.6 mph - N/A   Clear
6:34 AM 58.6 °F 55.8 °F 90% 30.12 in 10.0 mi Calm Calm - N/A   Clear
6:55 AM 59.9 °F 57.0 °F 90% 30.12 in 10.0 mi SE 5.8 mph - N/A   Clear
7:14 AM 61.0 °F 57.6 °F 88% 30.12 in 10.0 mi SE 5.8 mph - N/A   Clear
7:35 AM 61.9 °F 58.1 °F 87% 30.11 in 10.0 mi SE 5.8 mph - N/A   Scattered Clouds
7:55 AM 63.1 °F 58.8 °F 86% 30.12 in 10.0 mi SSE 6.9 mph - N/A   Clear
8:14 AM 64.6 °F 59.4 °F 83% 30.12 in 10.0 mi SE 6.9 mph - N/A   Clear
8:35 AM 66.2 °F 60.3 °F 81% 30.12 in 10.0 mi SE 6.9 mph - N/A   Clear
8:55 AM 67.8 °F 61.2 °F 79% 30.13 in 10.0 mi SSE 5.8 mph - N/A   Clear
9:14 AM 68.9 °F 61.7 °F 78% 30.13 in 10.0 mi SSE 4.6 mph - N/A   Clear
9:35 AM 70.5 °F 62.8 °F 76% 30.13 in 10.0 mi SE 4.6 mph - N/A   Clear
9:54 AM 70.2 °F 62.1 °F 75% 30.13 in 10.0 mi SE 5.8 mph - N/A   Clear
10:14 AM 71.6 °F 62.8 °F 74% 30.13 in 10.0 mi SE 5.8 mph - N/A   Clear
10:35 AM 72.0 °F 62.8 °F 73% 30.13 in 10.0 mi SE 6.9 mph - N/A   Clear
10:54 AM 72.5 °F 63.3 °F 73% 30.12 in 10.0 mi SSE 8.1 mph - N/A   Clear
11:14 AM 73.2 °F 64.2 °F 73% 30.12 in 10.0 mi SSE 5.8 mph - N/A   Clear
11:35 AM 74.5 °F 64.2 °F 70% 30.13 in 10.0 mi SE 8.1 mph - N/A   Clear
11:54 AM 74.8 °F 63.9 °F 69% 30.13 in 10.0 mi SE 9.2 mph - N/A   Clear
12:15 PM 75.4 °F 63.7 °F 67% 30.13 in 10.0 mi SE 8.1 mph - N/A   Clear
12:35 PM 76.5 °F 64.2 °F 66% 30.13 in 10.0 mi SSE 9.2 mph - N/A   Clear
12:54 PM 76.6 °F 64.4 °F 66% 30.13 in 10.0 mi SSE 10.4 mph - N/A   Clear
1:15 PM 76.5 °F 64.2 °F 66% 30.12 in 10.0 mi SE 8.1 mph 17.3 mph N/A   Clear
1:35 PM 76.6 °F 64.2 °F 65% 30.11 in 10.0 mi SSE 9.2 mph - N/A   Clear
1:54 PM 76.6 °F 63.1 °F 63% 30.12 in 10.0 mi SSE 9.2 mph - N/A   Clear
2:15 PM 76.1 °F 61.2 °F 60% 30.12 in 10.0 mi SSE 11.5 mph 18.4 mph N/A   Clear
2:35 PM 77.5 °F 63.0 °F 61% 30.10 in 10.0 mi SSE 6.9 mph - N/A   Clear
2:54 PM 78.1 °F 61.9 °F 57% 30.10 in 10.0 mi SE 9.2 mph 17.3 mph N/A   Clear
3:15 PM 78.1 °F 60.8 °F 55% 30.09 in 10.0 mi SSE 11.5 mph 17.3 mph N/A   Clear
3:34 PM 77.2 °F 61.2 °F 58% 30.09 in 10.0 mi SE 8.1 mph 20.7 mph N/A   Clear
3:54 PM 76.5 °F 60.3 °F 57% 30.08 in 10.0 mi SE 10.4 mph 19.6 mph N/A   Clear
4:34 PM 76.3 °F 60.8 °F 59% 30.07 in 10.0 mi ESE 11.5 mph 19.6 mph N/A   Clear
4:55 PM 77.0 °F 60.6 °F 57% 30.08 in 10.0 mi SE 12.7 mph 20.7 mph N/A   Clear
5:14 PM 76.6 °F 61.0 °F 58% 30.07 in 10.0 mi ESE 13.8 mph 21.9 mph N/A   Clear
5:34 PM 75.9 °F 62.2 °F 62% 30.07 in 10.0 mi SE 10.4 mph 21.9 mph N/A   Clear
5:55 PM 75.2 °F 62.2 °F 64% 30.06 in 10.0 mi SE 12.7 mph 18.4 mph N/A   Clear
6:14 PM 74.8 °F 61.9 °F 64% 30.06 in 10.0 mi SE 6.9 mph - N/A   Clear
6:35 PM 73.4 °F 62.1 °F 68% 30.05 in 10.0 mi SE 11.5 mph 18.4 mph N/A   Clear
6:55 PM 73.0 °F 62.1 °F 68% 30.05 in 10.0 mi ESE 13.8 mph 19.6 mph N/A   Clear
7:14 PM 72.5 °F 61.9 °F 69% 30.04 in 10.0 mi SE 10.4 mph 21.9 mph N/A   Clear
7:35 PM 72.1 °F 62.4 °F 71% 30.04 in 10.0 mi SE 9.2 mph - N/A   Clear
7:55 PM 72.0 °F 62.6 °F 72% 30.04 in 10.0 mi SE 8.1 mph 17.3 mph N/A   Clear
8:14 PM 71.6 °F 62.6 °F 73% 30.03 in 10.0 mi SE 6.9 mph - N/A   Clear
8:35 PM 70.9 °F 62.6 °F 75% 30.03 in 10.0 mi SSE 8.1 mph - N/A   Clear
8:54 PM 69.8 °F 62.2 °F 77% 30.02 in 10.0 mi SSE 10.4 mph 17.3 mph N/A   Clear
9:15 PM 68.9 °F 62.1 °F 79% 30.01 in 10.0 mi SE 6.9 mph - N/A   Clear
9:35 PM 68.9 °F 62.2 °F 79% 30.00 in 10.0 mi SE 8.1 mph - N/A   Clear
9:54 PM 68.9 °F 62.2 °F 79% 30.00 in 10.0 mi SSE 10.4 mph 16.1 mph N/A   Clear
10:15 PM 68.2 °F 62.1 °F 81% 30.01 in 10.0 mi SSE 10.4 mph 16.1 mph N/A   Clear
10:34 PM 67.1 °F 61.3 °F 82% 30.03 in 10.0 mi SSE 12.7 mph 20.7 mph N/A   Clear
10:55 PM 64.4 °F 59.9 °F 85% 30.03 in 10.0 mi SSE 10.4 mph 16.1 mph N/A   Clear
11:15 PM 63.5 °F 59.2 °F 86% 30.03 in 10.0 mi SSE 12.7 mph 19.6 mph N/A   Clear
11:34 PM 62.8 °F 59.0 °F 87% 30.03 in 10.0 mi SE 10.4 mph - N/A   Clear
11:55 PM 62.8 °F 59.0 °F 87% 30.02 in 10.0 mi SE 10.4 mph - N/A   Scattered Clouds